Location: Twentynine Palms Airport
(34.1316°N, 115.9458°W)
Time: 14:15:42
(UTC-07:00)

Amateur Radio Satellites - All Passes

Search period start: 23 July 2016 13:45
Search period end: 24 July 2016 13:45
Location: Twentynine Palms Airport, 34.1316°N, 115.9458°W

Satellite Date Start Highest point End Downlink Frequencies (MHz)
Time Altitude Azimuth
UKube-1 23 Jul 13:52:42 13:55:51 20° 291° (WNW) 13:58:59 .
Oscar 19 23 Jul 13:53:08 13:58:05 50° 260° (W) 14:03:03 437.125/150
AO-85 23 Jul 13:56:42 14:01:31 33° 112° (ESE) 14:06:14 145.980
BEESAT 23 Jul 14:06:23 14:09:22 16° 94° (E) 14:12:19 436.000
TISAT 1 23 Jul 14:08:46 14:13:01 71° 285° (WNW) 14:17:14 437.305
ITUPSAT 1 23 Jul 14:25:47 14:29:48 26° 97° (E) 14:33:45 437.325
Gurwin Techsat 1B 23 Jul 14:39:31 14:44:32 42° 261° (W) 14:49:34 435.225
Cosmos 2499 23 Jul 14:45:15 14:50:58 19° 81° (E) 14:56:39 435.465 / 435.565
AO-7 23 Jul 15:00:04 15:08:04 53° 67° (ENE) 15:16:06 29.400- 29.500
GONETS M04 23 Jul 15:01:28 15:09:07 36° 86° (E) 15:16:47
AIST 1 23 Jul 15:14:36 15:15:49 11° 287° (WNW) 15:17:02
ITAMSAT 1 23 Jul 15:18:02 15:23:09 55° 259° (W) 15:28:18 435.822/435.867
SWISSCUBE 23 Jul 15:20:43 15:25:27 65° 285° (WNW) 15:30:07 437.505
KKS-1 23 Jul 15:22:46 15:23:00 10° 92° (E) 15:23:13 437.445
MOZHAYETS 4 23 Jul 15:25:12 15:27:09 13° 92° (E) 15:29:06
CUSAT 1 23 Jul 15:31:25 15:34:19 78° 262° (W) 15:37:54 437.405
AO-85 23 Jul 15:37:16 15:41:59 30° 306° (NW) 15:46:33 145.980
HORYU 2 23 Jul 15:41:00 15:42:12 11° 65° (ENE) 15:43:23 437.375
BEESAT 23 Jul 15:42:48 15:47:16 41° 288° (WNW) 15:51:43 436.000
RS-15 23 Jul 15:54:53 16:06:40 47° 51° (NE) 16:18:13 29.354- 29.394
ITUPSAT 1 23 Jul 16:03:34 16:07:30 26° 291° (WNW) 16:11:24 437.325
STARS 23 Jul 16:10:12 16:13:18 18° 95° (E) 16:16:23 437.465
Cosmos 2499 23 Jul 16:34:13 16:43:04 78° 277° (W) 16:51:55 435.465 / 435.565
AO-7 23 Jul 16:53:58 17:01:01 30° 262° (W) 17:08:07 29.400- 29.500
KKS-1 23 Jul 16:55:26 16:59:52 58° 285° (WNW) 17:04:15 437.445
GONETS M04 23 Jul 16:57:40 17:05:41 41° 283° (WNW) 17:13:48
DANDE 23 Jul 16:59:11 17:00:22 12° 266° (W) 17:01:35 436.750
SO-50 23 Jul 16:59:31 17:01:30 12° 46° (NE) 17:03:28 436.795
MOZHAYETS 4 23 Jul 17:00:08 17:04:33 49° 286° (WNW) 17:08:55
NOAA 15 23 Jul 17:01:57 17:05:43 20° 67° (ENE) 17:09:29 137.62
HORYU 2 23 Jul 17:13:46 17:18:10 60° 258° (WSW) 17:22:38 437.375
GOMX 1 23 Jul 17:29:33 17:31:48 14° 67° (ENE) 17:34:04 467.674
Cubesat XI-IV 23 Jul 17:41:46 17:46:39 37° 70° (ENE) 17:51:33 437.490
BRITE-PL 23 Jul 17:42:38 17:46:45 53° 75° (ENE) 17:50:47 437.365/2234.400
STARS 23 Jul 17:45:43 17:49:40 32° 289° (WNW) 17:53:36 437.465
LilacSat-2 23 Jul 17:49:06 17:52:35 33° 73° (ENE) 17:56:05 437.200
CUTE-I 23 Jul 18:06:15 18:11:34 65° 74° (ENE) 18:16:54 437.470
RS-15 23 Jul 18:07:34 18:19:14 51° 251° (WSW) 18:30:39 29.354- 29.394
NOAA 18 23 Jul 18:08:03 18:13:32 70° 74° (ENE) 18:19:03 137.9125
CUBESAT XI-V 23 Jul 18:08:13 18:12:50 82° 283° (WNW) 18:17:27 437.345
PHONESAT 2.4 23 Jul 18:12:24 18:15:26 56° 152° (SSE) 18:18:27 2401.200-2431.200
BEESAT 3 23 Jul 18:26:29 18:29:11 18° 110° (ESE) 18:31:54 437.485
Cosmos 2499 23 Jul 18:33:36 18:37:29 13° 295° (WNW) 18:41:24 435.465 / 435.565
SO-50 23 Jul 18:37:55 18:42:30 71° 243° (WSW) 18:46:56 436.795
NOAA 15 23 Jul 18:40:12 18:45:09 42° 261° (W) 18:50:07 137.62
HO-68 23 Jul 18:51:28 18:57:18 28° 64° (ENE) 19:03:09 435.675
GOMX 1 23 Jul 19:05:47 19:09:34 35° 262° (W) 19:13:26 467.674
CANX-2 23 Jul 19:11:56 19:15:21 23° 71° (ENE) 19:18:46 2200.000
DOVE 4 23 Jul 19:18:21 19:22:29 64° 260° (W) 19:26:48 437.250
Cubesat XI-IV 23 Jul 19:22:32 19:26:44 23° 264° (W) 19:30:59 437.490
LilacSat-2 23 Jul 19:25:09 19:26:58 13° 267° (W) 19:28:47 437.200
CUTE 1.7 + AOD 2 23 Jul 19:25:49 19:29:32 29° 72° (ENE) 19:33:15 437.475
AAUSAT CUBESAT 2 23 Jul 19:30:51 19:32:26 12° 67° (ENE) 19:34:00 437.432
STRAND 1 23 Jul 19:38:21 19:43:17 47° 100° (E) 19:48:09 437.568
UWE-3 23 Jul 19:45:01 19:46:34 12° 65° (ENE) 19:48:08 435.000/436.395/437.385
PHONESAT 2.4 23 Jul 19:49:14 19:52:03 32° 347° (NNW) 19:54:52 2401.200-2431.200
CUTE-I 23 Jul 19:49:41 19:51:58 13° 268° (W) 19:54:16 437.470
PCSat 23 Jul 19:51:48 19:57:09 67° 113° (ESE) 20:02:32 145.827
NOAA 18 23 Jul 19:52:28 19:54:37 12° 268° (W) 19:56:46 137.9125
CUBEBUG 2 23 Jul 19:56:24 19:59:59 24° 69° (ENE) 20:03:40 437.445
CINEMA 3 23 Jul 19:58:27 20:02:48 88° 254° (WSW) 20:07:25 145.822/145.860
BEESAT 2 23 Jul 20:00:44 20:04:37 60° 300° (WNW) 20:08:34 435.950
BEESAT 3 23 Jul 20:03:13 20:06:38 28° 305° (NW) 20:10:05 437.485
SEEDS 23 Jul 20:11:43 20:15:57 75° 76° (ENE) 20:20:12 437.485
COMPASS 1 23 Jul 20:30:57 20:35:09 88° 76° (ENE) 20:39:21 437.405
Cosmos 2491 23 Jul 20:32:04 20:37:15 17° 80° (E) 20:42:26 435.465 / 435.565
HO-68 23 Jul 20:37:43 20:44:36 50° 259° (W) 20:51:34 435.675
Oscar 11 23 Jul 20:41:23 20:45:15 32° 72° (ENE) 20:49:09 145.826/435.025
CANX-2 23 Jul 20:47:36 20:51:04 24° 264° (W) 20:54:32 2200.000
O/OREOS (USA 219) 23 Jul 20:57:33 21:01:51 50° 106° (ESE) 21:06:11 437.305
CUTE 1.7 + AOD 2 23 Jul 21:02:20 21:05:21 19° 265° (W) 21:08:23 437.475
ISS 23 Jul 21:03:10 21:04:34 12° 127° (SE) 21:05:58 145.825
AAUSAT CUBESAT 2 23 Jul 21:03:27 21:07:28 46° 261° (W) 21:11:29 437.432
YUBILEINY 23 Jul 21:08:11 21:16:54 59° 80° (E) 21:25:30 435.215
PRISM 23 Jul 21:12:08 21:16:11 61° 101° (ESE) 21:20:14 437.425
UWE-3 23 Jul 21:18:00 21:22:25 58° 260° (W) 21:26:58 435.000/436.395/437.385
STRAND 1 23 Jul 21:18:45 21:22:02 17° 294° (WNW) 21:25:18 437.568
M-CUBED/EXP-1 PRIME 23 Jul 21:22:53 21:26:20 49° 69° (ENE) 21:30:04 437.505
PHONESAT 2.4 23 Jul 21:26:28 21:29:03 24° 4° (N) 21:31:39 2401.200-2431.200
ZACube-1 23 Jul 21:27:23 21:31:50 72° 258° (WSW) 21:36:24 437.345
AIST 2 23 Jul 21:28:32 21:32:27 47° 115° (ESE) 21:36:25 435.215
FUNcube-1 23 Jul 21:28:39 21:33:06 75° 258° (WSW) 21:37:40 145.935
Cosmos 2504 23 Jul 21:29:05 21:35:18 23° 70° (ENE) 21:41:10 435.465 / 435.565
CUBEBUG 2 23 Jul 21:32:39 21:36:25 27° 264° (W) 21:40:20 437.445
PCSat 23 Jul 21:37:45 21:41:01 16° 310° (NW) 21:44:18 145.827
HUMSAT D 23 Jul 21:40:44 21:44:31 31° 72° (ENE) 21:48:19 437.325/437.525
ANTELSAT 23 Jul 21:49:09 21:50:25 11° 91° (E) 21:51:41 437.575/2403.000
AUBIESAT-1 23 Jul 21:52:15 21:55:50 80° 253° (WSW) 21:59:45 437.475
DELFI C3 23 Jul 21:58:39 22:02:37 66° 259° (W) 22:06:36 145.870
Oscar 11 23 Jul 22:18:31 22:21:25 17° 266° (W) 22:24:19 145.826/435.025
Cosmos 2491 23 Jul 22:24:16 22:32:59 79° 277° (W) 22:41:44 435.465 / 435.565
TIGRISAT 23 Jul 22:29:28 22:33:38 32° 97° (E) 22:37:41 435.000
AISAT 23 Jul 22:34:57 22:36:42 12° 66° (ENE) 22:38:27 437.250
ISS 23 Jul 22:37:32 22:40:40 45° 320° (NW) 22:43:49 145.825
O/OREOS (USA 219) 23 Jul 22:39:28 22:41:32 13° 301° (WNW) 22:43:37 437.305
UNISAT 6 23 Jul 22:44:15 22:48:47 51° 100° (E) 22:53:12 437.425
DX 1 23 Jul 22:48:24 22:49:59 12° 66° (ENE) 22:51:34 434.975-435.025
50 SAT 23 Jul 22:50:50 22:53:02 15° 70° (ENE) 22:55:15 437.505
ESTCUBE 1 23 Jul 22:51:28 22:55:29 33° 72° (ENE) 22:59:30 437.505/2401.250
PHONESAT 2.4 23 Jul 23:02:55 23:05:56 54° 20° (NNE) 23:08:57 2401.200-2431.200
YUBILEINY 23 Jul 23:06:12 23:12:59 26° 277° (W) 23:19:45 435.215
UKube-1 23 Jul 23:08:13 23:10:50 16° 67° (ENE) 23:13:27 .
AIST 2 23 Jul 23:08:56 23:11:11 14° 310° (NW) 23:13:26 435.215
NANOSAT C BR1 23 Jul 23:10:11 23:11:41 12° 92° (E) 23:13:12 145.865
DUCHIFAT 1 23 Jul 23:15:57 23:17:55 13° 93° (E) 23:19:52 145.980
HUMSAT D 23 Jul 23:17:11 23:20:08 18° 266° (W) 23:23:07 437.325/437.525
Cosmos 2504 23 Jul 23:21:15 23:29:12 58° 269° (W) 23:36:34 435.465 / 435.565
ANTELSAT 23 Jul 23:22:53 23:27:27 57° 285° (WNW) 23:31:54 437.575/2403.000
VELOX 1 23 Jul 23:24:09 23:28:18 43° 73° (ENE) 23:32:28 145.980
QB50P1 23 Jul 23:28:44 23:32:03 22° 96° (E) 23:35:21 145.935-145.965
POPSAT HIP 1 23 Jul 23:34:37 23:38:10 25° 96° (E) 23:41:42 437.405
CUBEBUG 1 23 Jul 23:35:16 23:39:32 69° 76° (ENE) 23:43:50 437.445
BUGSAT 1 23 Jul 23:46:29 23:48:17 12° 93° (E) 23:50:06 437.445
SPROUT 23 Jul 23:47:34 23:51:25 34° 72° (ENE) 23:55:18 437.525
QB50P2 23 Jul 23:54:04 23:58:14 47° 100° (E) 00:02:20 145.880/145.840
POLYITAN 1 23 Jul 23:56:43 00:00:53 48° 100° (E) 00:05:01 437.675
TIGRISAT 24 Jul 00:06:39 00:10:03 21° 292° (WNW) 00:13:24 435.000
AISAT 24 Jul 00:08:27 00:12:41 50° 260° (W) 00:16:57 437.250
AO-85 24 Jul 00:12:33 00:16:50 82° 242° (WSW) 00:20:47 145.980
DX 1 24 Jul 00:21:30 00:25:41 51° 259° (W) 00:29:55 434.975-435.025
UNISAT 6 24 Jul 00:22:46 00:24:58 13° 295° (WNW) 00:27:10 437.425
50 SAT 24 Jul 00:23:18 00:26:26 26° 263° (W) 00:29:34 437.505
Cosmos 2491 24 Jul 00:27:57 00:31:12 12° 296° (WNW) 00:34:29 435.465 / 435.565
ESTCUBE 1 24 Jul 00:29:11 00:32:19 19° 265° (W) 00:35:27 437.505/2401.250
JAS-2 24 Jul 00:37:27 00:42:19 36° 99° (E) 00:47:32 435.910
PHONESAT 2.4 24 Jul 00:39:48 00:42:18 23° 214° (SW) 00:44:47 2401.200-2431.200
UKube-1 24 Jul 00:42:35 00:46:33 36° 261° (W) 00:50:32 .
NANOSAT C BR1 24 Jul 00:43:31 00:47:37 46° 286° (WNW) 00:51:42 145.865
DUCHIFAT 1 24 Jul 00:49:44 00:53:45 42° 287° (WNW) 00:57:45 145.980
TISAT 1 24 Jul 00:56:29 01:00:30 49° 74° (ENE) 01:04:35 437.305
VELOX 1 24 Jul 01:02:52 01:04:56 13° 267° (W) 01:07:00 145.980
QB50P1 24 Jul 01:04:12 01:07:44 25° 289° (WNW) 01:11:15 145.935-145.965
BEESAT 24 Jul 01:10:12 01:12:28 13° 65° (ENE) 01:14:44 436.000
POPSAT HIP 1 24 Jul 01:10:27 01:13:48 22° 290° (WNW) 01:17:07 437.405
GONETS M04 24 Jul 01:18:14 01:22:17 14° 65° (ENE) 01:26:19
BUGSAT 1 24 Jul 01:19:47 01:23:49 43° 286° (WNW) 01:27:50 437.445
AIST 1 24 Jul 01:21:46 01:26:05 67° 266° (W) 01:30:24
SPROUT 24 Jul 01:24:50 01:27:25 16° 266° (W) 01:30:01 437.525
ITUPSAT 1 24 Jul 01:29:19 01:32:54 21° 68° (ENE) 01:36:30 437.325
QB50P2 24 Jul 01:31:47 01:33:34 12° 294° (WNW) 01:35:20 145.880/145.840
POLYITAN 1 24 Jul 01:34:30 01:36:12 12° 294° (WNW) 01:37:54 437.675
JUGNU 24 Jul 01:54:27 01:55:08 10° 163° (SSE) 01:55:49 437.505
Oscar 19 24 Jul 02:08:09 02:13:20 77° 103° (ESE) 02:18:30 437.125/150
SWISSCUBE 24 Jul 02:23:05 02:27:53 87° 257° (WSW) 02:32:42 437.505
JAS-2 24 Jul 02:23:10 02:27:14 23° 291° (WNW) 02:31:32 435.910
Cosmos 2499 24 Jul 02:31:59 02:38:38 29° 73° (ENE) 02:44:53 435.465 / 435.565
TISAT 1 24 Jul 02:35:43 02:36:24 10° 268° (W) 02:37:05 437.305
BEESAT 24 Jul 02:45:02 02:49:44 56° 260° (W) 02:54:26 436.000
Gurwin Techsat 1B 24 Jul 02:59:09 03:04:29 79° 284° (WNW) 03:09:47 435.225
STARS 24 Jul 03:05:27 03:06:28 11° 65° (ENE) 03:07:29 437.465
ITUPSAT 1 24 Jul 03:06:09 03:10:29 33° 262° (W) 03:14:50 437.325
AO-7 24 Jul 03:07:24 03:13:11 20° 95° (E) 03:18:53 29.400- 29.500
GONETS M04 24 Jul 03:11:32 03:20:24 83° 84° (E) 03:29:15
ITAMSAT 1 24 Jul 03:34:33 03:39:45 72° 103° (ESE) 03:44:54 435.822/435.867
JUGNU 24 Jul 03:39:34 03:43:25 18° 173° (S) 03:47:15 437.505
KKS-1 24 Jul 03:49:23 03:53:47 79° 77° (ENE) 03:58:14 437.445
Oscar 19 24 Jul 03:50:36 03:51:57 11° 297° (WNW) 03:53:18 437.125/150
MOZHAYETS 4 24 Jul 03:57:39 04:02:18 83° 258° (WSW) 04:06:57
DANDE 24 Jul 04:17:58 04:24:07 43° 96° (E) 04:28:52 436.750
BEESAT 2 24 Jul 04:22:34 04:25:50 23° 54° (NE) 04:29:04 435.950
BEESAT 3 24 Jul 04:23:15 04:27:04 45° 58° (ENE) 04:30:51 437.485
Cosmos 2499 24 Jul 04:24:37 04:31:53 43° 272° (W) 04:38:40 435.465 / 435.565
CUSAT 1 24 Jul 04:30:26 04:35:18 50° 278° (W) 04:39:01 437.405
STARS 24 Jul 04:37:57 04:42:15 58° 259° (W) 04:46:37 437.465
PCSat 24 Jul 04:43:59 04:48:25 25° 55° (NE) 04:52:50 145.827
AO-7 24 Jul 04:58:10 05:06:30 73° 290° (WNW) 05:14:45 29.400- 29.500
CUBESAT XI-V 24 Jul 05:07:30 05:12:04 62° 76° (ENE) 05:16:38 437.345
ISS 24 Jul 05:08:09 05:11:07 31° 38° (NE) 05:14:04 145.825
HORYU 2 24 Jul 05:08:37 05:12:40 33° 98° (E) 05:16:41 437.375
GONETS M04 24 Jul 05:11:05 05:16:01 17° 280° (W) 05:20:59
ITAMSAT 1 24 Jul 05:16:41 05:18:32 12° 297° (WNW) 05:20:23 435.822/435.867
JUGNU 24 Jul 05:27:38 05:31:45 19° 183° (S) 05:35:51 437.505
SRMSAT 24 Jul 05:49:40 05:53:25 17° 172° (S) 05:57:10 437.500
BRITE-PL 24 Jul 05:50:08 05:54:09 25° 97° (E) 05:58:23 437.365/2234.400
AIST 2 24 Jul 05:55:01 05:56:39 12° 48° (NE) 05:58:17 435.215
BEESAT 2 24 Jul 06:00:20 06:03:33 23° 249° (WSW) 06:06:44 435.950
DANDE 24 Jul 06:02:15 06:06:43 20° 281° (WNW) 06:10:29 436.750
BEESAT 3 24 Jul 06:03:04 06:04:17 11° 252° (WSW) 06:05:29 437.485
Cubesat XI-IV 24 Jul 06:03:31 06:07:19 20° 94° (E) 06:11:07 437.490
RS-15 24 Jul 06:14:02 06:24:05 39° 106° (ESE) 06:34:34 29.354- 29.394
PCSat 24 Jul 06:26:54 06:31:53 39° 251° (WSW) 06:36:51 145.827
CUTE-I 24 Jul 06:27:28 06:32:20 35° 98° (E) 06:37:08 437.470
NOAA 18 24 Jul 06:34:11 06:39:23 40° 99° (E) 06:44:32 137.9125
ISS 24 Jul 06:45:02 06:47:22 18° 232° (SW) 06:49:41 145.825
HORYU 2 24 Jul 06:45:50 06:48:57 19° 292° (WNW) 06:52:03 437.375
STRAND 1 24 Jul 06:50:26 06:55:20 46° 72° (ENE) 07:00:15 437.568
AO-7 24 Jul 06:54:09 06:57:48 14° 308° (NW) 07:01:29 29.400- 29.500
NOAA 15 24 Jul 06:58:41 07:03:58 83° 285° (WNW) 07:09:14 137.62
LilacSat-2 24 Jul 06:59:51 07:03:44 89° 106° (ESE) 07:07:35 437.200
GOMX 1 24 Jul 07:09:25 07:14:28 81° 102° (ESE) 07:19:48 467.674
O/OREOS (USA 219) 24 Jul 07:11:02 07:15:29 52° 68° (ENE) 07:19:55 437.305
JUGNU 24 Jul 07:17:11 07:20:03 14° 193° (SSW) 07:22:55 437.505
DOVE 4 24 Jul 07:19:57 07:24:54 47° 99° (E) 07:29:59 437.250
BRITE-PL 24 Jul 07:28:25 07:32:31 29° 288° (WNW) 07:36:54 437.365/2234.400
AIST 2 24 Jul 07:31:23 07:35:30 61° 244° (WSW) 07:39:35 435.215
SRMSAT 24 Jul 07:37:45 07:41:54 20° 182° (S) 07:46:03 437.500
Cubesat XI-IV 24 Jul 07:42:29 07:47:32 43° 288° (WNW) 07:52:31 437.490
CINEMA 3 24 Jul 07:56:53 08:01:21 32° 96° (E) 08:05:47 145.822/145.860
PRISM 24 Jul 07:58:18 08:01:42 26° 71° (ENE) 08:05:04 437.425
SEEDS 24 Jul 08:00:37 08:03:11 16° 94° (E) 08:05:45 437.485
CUTE-I 24 Jul 08:07:53 08:12:08 25° 292° (WNW) 08:16:23 437.470
HO-68 24 Jul 08:09:27 08:16:08 40° 99° (E) 08:22:46 435.675
NOAA 18 24 Jul 08:15:28 08:19:44 23° 294° (WNW) 08:23:59 137.9125
YUBILEINY 24 Jul 08:15:41 08:17:20 11° 76° (ENE) 08:18:59 435.215
COMPASS 1 24 Jul 08:18:33 08:21:21 18° 94° (E) 08:24:10 437.405
RS-15 24 Jul 08:24:52 08:35:59 56° 306° (NW) 08:47:47 29.354- 29.394
STRAND 1 24 Jul 08:31:23 08:34:40 17° 266° (W) 08:37:59 437.568
CANX-2 24 Jul 08:35:21 08:39:35 77° 103° (ESE) 08:43:46 2200.000
Cosmos 2491 24 Jul 08:39:29 08:47:45 44° 77° (ENE) 08:55:59 435.465 / 435.565
SO-50 24 Jul 08:47:45 08:52:38 90° 110° (ESE) 08:57:32 436.795
CUTE 1.7 + AOD 2 24 Jul 08:49:28 08:53:41 82° 285° (WNW) 08:57:52 437.475
AAUSAT CUBESAT 2 24 Jul 08:49:29 08:53:13 33° 98° (E) 08:56:55 437.432
GOMX 1 24 Jul 08:51:04 08:51:56 10° 295° (WNW) 08:52:49 467.674
O/OREOS (USA 219) 24 Jul 08:52:54 08:54:20 11° 262° (W) 08:55:46 437.305
DOVE 4 24 Jul 08:58:45 09:02:12 18° 292° (WNW) 09:05:42 437.250
UWE-3 24 Jul 09:11:37 09:15:55 37° 98° (E) 09:20:06 435.000/436.395/437.385
ZACube-1 24 Jul 09:20:02 09:23:58 29° 96° (E) 09:27:47 437.345
FUNcube-1 24 Jul 09:21:03 09:24:54 28° 96° (E) 09:28:38 145.935
TIGRISAT 24 Jul 09:25:00 09:28:13 19° 68° (ENE) 09:31:28 435.000
CUBEBUG 2 24 Jul 09:26:21 09:31:07 87° 102° (ESE) 09:35:44 437.445
SRMSAT 24 Jul 09:27:17 09:30:22 14° 192° (SSW) 09:33:28 437.500
PRISM 24 Jul 09:34:00 09:36:56 19° 264° (W) 09:39:53 437.425
CINEMA 3 24 Jul 09:34:14 09:38:16 25° 290° (WNW) 09:42:16 145.822/145.860
SEEDS 24 Jul 09:35:13 09:38:57 32° 287° (WNW) 09:42:38 437.485
AUBIESAT-1 24 Jul 09:36:27 09:37:59 11° 96° (E) 09:39:30 437.475
UNISAT 6 24 Jul 09:39:23 09:43:19 29° 71° (ENE) 09:47:20 437.425
DELFI C3 24 Jul 09:40:44 09:43:36 19° 95° (E) 09:46:27 145.870
COMPASS 1 24 Jul 09:53:21 09:56:55 28° 288° (WNW) 10:00:26 437.405
HO-68 24 Jul 09:57:21 10:03:39 34° 294° (WNW) 10:09:55 435.675
Cosmos 2504 24 Jul 10:02:14 10:08:42 24° 82° (E) 10:15:13 435.465 / 435.565
YUBILEINY 24 Jul 10:03:47 10:12:30 76° 94° (E) 10:21:18 435.215
Oscar 11 24 Jul 10:07:43 10:12:02 71° 283° (WNW) 10:16:17 145.826/435.025
ANTELSAT 24 Jul 10:17:15 10:21:48 79° 78° (ENE) 10:26:29 437.575/2403.000
QB50P1 24 Jul 10:20:04 10:20:53 10° 65° (ENE) 10:21:42 145.935-145.965
POPSAT HIP 1 24 Jul 10:25:15 10:26:58 12° 66° (ENE) 10:28:41 437.405
AAUSAT CUBESAT 2 24 Jul 10:25:56 10:28:23 16° 291° (WNW) 10:30:50 437.432
SO-50 24 Jul 10:32:08 10:33:46 11° 315° (NW) 10:35:24 436.795
Cosmos 2491 24 Jul 10:36:42 10:44:16 34° 274° (W) 10:51:53 435.465 / 435.565
M-CUBED/EXP-1 PRIME 24 Jul 10:39:01 10:43:44 78° 107° (ESE) 10:48:25 437.505
QB50P2 24 Jul 10:43:34 10:46:51 22° 70° (ENE) 10:50:09 145.880/145.840
RS-15 24 Jul 10:44:49 10:52:07 18° 335° (NNW) 10:59:38 29.354- 29.394
POLYITAN 1 24 Jul 10:46:09 10:49:29 23° 70° (ENE) 10:52:50 437.675
UWE-3 24 Jul 10:48:59 10:52:01 18° 292° (WNW) 10:55:00 435.000/436.395/437.385
JAS-2 24 Jul 10:50:46 10:51:45 10° 63° (ENE) 10:52:42 435.910
ZACube-1 24 Jul 10:56:38 11:00:01 21° 291° (WNW) 11:03:20 437.345
FUNcube-1 24 Jul 10:57:30 11:00:56 22° 291° (WNW) 11:04:18 145.935
TIGRISAT 24 Jul 11:00:25 11:04:35 35° 262° (W) 11:08:50 435.000
HUMSAT D 24 Jul 11:02:50 11:07:03 84° 283° (WNW) 11:11:11 437.325/437.525
AUBIESAT-1 24 Jul 11:08:06 11:12:42 61° 289° (WNW) 11:17:14 437.475
DELFI C3 24 Jul 11:15:12 11:18:22 23° 289° (WNW) 11:21:30 145.870
UNISAT 6 24 Jul 11:16:26 11:19:59 22° 265° (W) 11:23:37 437.425
VELOX 1 24 Jul 11:20:20 11:21:34 11° 92° (E) 11:22:49 145.980
CUBEBUG 1 24 Jul 11:28:34 11:31:28 17° 94° (E) 11:34:21 437.445
NANOSAT C BR1 24 Jul 11:31:23 11:35:34 76° 77° (ENE) 11:39:50 145.865
DUCHIFAT 1 24 Jul 11:37:16 11:41:28 84° 77° (ENE) 11:45:42 145.980
QB50P1 24 Jul 11:51:59 11:56:07 55° 260° (W) 12:00:19 145.935-145.965
Cosmos 2504 24 Jul 11:52:33 12:01:15 66° 278° (W) 12:10:07 435.465 / 435.565
50 SAT 24 Jul 11:55:18 11:58:28 29° 98° (E) 12:01:37 437.505
POPSAT HIP 1 24 Jul 11:58:12 12:02:17 47° 261° (W) 12:06:23 437.405
AISAT 24 Jul 12:02:12 12:06:22 38° 99° (E) 12:10:32 437.250
YUBILEINY 24 Jul 12:04:11 12:10:07 20° 291° (WNW) 12:16:07 435.215
BUGSAT 1 24 Jul 12:05:20 12:09:22 75° 75° (ENE) 12:13:27 437.445
DX 1 24 Jul 12:13:22 12:17:22 34° 98° (E) 12:21:21 434.975-435.025
M-CUBED/EXP-1 PRIME 24 Jul 12:16:33 12:17:34 11° 300° (WNW) 12:18:36 437.505
QB50P2 24 Jul 12:19:01 12:22:29 25° 264° (W) 12:26:00 145.880/145.840
POLYITAN 1 24 Jul 12:21:41 12:25:08 24° 264° (W) 12:28:37 437.675
ESTCUBE 1 24 Jul 12:23:43 12:28:10 66° 284° (WNW) 12:32:36 437.505/2401.250
JAS-2 24 Jul 12:29:45 12:36:12 89° 76° (ENE) 12:41:56 435.910
UKube-1 24 Jul 12:32:59 12:37:09 46° 100° (E) 12:41:18 .
Gurwin Techsat 1B 24 Jul 12:40:20 12:42:27 12° 63° (ENE) 12:44:32 435.225
TISAT 1 24 Jul 12:47:06 12:47:39 10° 92° (E) 12:48:12 437.305
VELOX 1 24 Jul 12:53:57 12:58:17 53° 286° (WNW) 13:02:36 145.980
CUBEBUG 1 24 Jul 13:03:49 13:07:47 34° 288° (WNW) 13:11:45 437.445
RS-15 24 Jul 13:06:42 13:12:16 14° 14° (NNE) 13:17:52 29.354- 29.394
SPROUT 24 Jul 13:12:27 13:16:45 70° 284° (WNW) 13:21:02 437.525
Oscar 19 24 Jul 13:21:12 13:26:17 76° 76° (ENE) 13:31:25 437.125/150
50 SAT 24 Jul 13:30:06 13:31:48 13° 291° (WNW) 13:33:31 437.505
AISAT 24 Jul 13:39:45 13:42:30 16° 293° (WNW) 13:45:14 437.250
